Torna al catalogo

STARLINK-6085

AttivoComunicazioniVLEO
NORAD 57115·PAYLOAD·🇺🇸 United States

Lanciato Jun 23, 2023 da Cape Canaveral Space Force Station

Loading…

Prossimi Passaggi (prossime 24 ore)

TLE

AggiornatoSource: CelesTrak SupGP

Epoca: Sep 15, 2026, 02:24 UTC

1 57115C 23090Q   26258.10048611  .00045939  00000+0  20286-2 0  2584
2 57115  42.9964 290.8037 0019333 347.9991   8.1240 15.20755596    16

Traccia STARLINK-6085 in tempo reale con AllMySat

Download on the App Store